Torna al catalogo

STARLINK-1308

AttivoComunicazioniVLEO
NORAD 45419·PAYLOAD·🇺🇸 United States

Lanciato Mar 18, 2020 da Cape Canaveral Space Force Station

Loading…

Prossimi Passaggi (prossime 24 ore)

TLE

AggiornatoSource: CelesTrak SupGP

Epoca: Sep 14, 2026, 20:34 UTC

1 45419C 20019BM  26257.85743056  .00043407  00000+0  27049-3 0  2574
2 45419  53.0410 303.6437 0006970   7.4377 118.3270 15.76174945    16

Traccia STARLINK-1308 in tempo reale con AllMySat

Download on the App Store